Regional Weather Roundup
Issued by NWS

Home | Current Version | Previous Version | Text Only | Print | Product List | Glossary Off
Versions: 1 2 3 4 5 6 7 8 9 10 11 12 13 14 15 16 17 18 19 20 21 22 23 24 25 26 27 28 29 30 31 32 33 34 35 36 37 38 39 40 41 42 43 44 45 46 47 48 49 50

000
ASUS43 KBIS 251820
RWRND

NORTH DAKOTA REGIONAL WEATHER ROUNDUP
NATIONAL WEATHER SERVICE BISMARCK ND
100 PM CDT MON MAY 25 2015

NOTE: "FAIR" INDICATES FEW OR NO CLOUDS BELOW 12,000 FEET WITH NO
SIGNIFICANT WEATHER AND/OR OBSTRUCTIONS TO VISIBILITY.


NDZ001>003-009>011-017-251900-
NORTHWEST NORTH DAKOTA

CITY           SKY/WX    TMP DP  RH WIND       PRES   REMARKS
WILLISTON      PTSUNNY   76  47  35 MISG      29.86F
6HR MIN TEMP:  48; 6HR MAX TEMP:  76;

MINOT          MOSUNNY   75  44  33 NW5       29.83F
MINOT AFB      MOSUNNY   80  46  30 E3        29.82F
$$

NDZ018>021-031>035-040>046-251900-
SOUTHWEST NORTH DAKOTA

CITY           SKY/WX    TMP DP  RH WIND       PRES   REMARKS
BISMARCK       CLOUDY    66  53  63 SE5       29.86S
6HR MIN TEMP:  56; 6HR MAX TEMP:  66; 6HR PCP:  0.17;

DICKINSON      CLOUDY    60  53  77 E8        29.88S
GARRISON         N/A     70  49  47 VRB3      29.85S
6HR MIN TEMP:  55; 6HR MAX TEMP:  70;

HETTINGER ARPT LGT RAIN  55  52  89 E13       29.89R FOG
$$

NDZ004>008-012>016-024-026-027-054-251900-
NORTHEAST NORTH DAKOTA

CITY           SKY/WX    TMP DP  RH WIND       PRES   REMARKS
GRAND FORKS    CLOUDY    68  51  54 N5        29.75F
GRND FRKS AFB  CLOUDY    70  50  50 NE7       29.76F
DEVILS LAKE    PTSUNNY   75  39  27 E10G22    29.78S
$$

NDZ022-023-025-028>030-036>039-047>053-251900-
SOUTHEAST NORTH DAKOTA

CITY           SKY/WX    TMP DP  RH WIND       PRES   REMARKS
FARGO          LGT RAIN  65  57  75 NE13      29.77F
6HR MIN TEMP:  58; 6HR MAX TEMP:  65; 6HR PCP:  0.10;

JAMESTOWN      PTSUNNY   68  56  65 VRB6      29.80S
$$



USA.gov is the U.S. government's official web portal to all federal, state and local government web resources and services.